Starlink 3996

operational
NORAD ID: 52617 Int'l Des: 2022-052 Owner: SPXS Country: US Constellation: starlink
LEOCIRCULAR

About Starlink 3996

Description loading...

Live Position

Loading 3D Globe...

Upcoming Passes

Altitude History

Altitude vs Time

uPlot chart will show altitude changes over time

Two-Line Element Set

1 52617U 22052V 25342.66495433 .00003397 00000-0 23138-3 0 9990
2 52617 53.2168 317.7459 0001489 84.4543 275.6619 15.08842140197246
Epoch: Dec 8, 2025 • Age: 12 hours

Current Status

Altitude 541.4 km
Velocity 7.60 km/s
Sub-Earth Point 33.57°N, 27.5°W
Launch Date May 14, 2022
Age 3.5 years
Type internet

Technical Details

Classification Payload
Mass 297.00 kg
Dry Mass 275.00 kg
Total Mass 297.00 kg
Length 0.20 m
Diameter 2.80 m
Span 9.00 m
Shape Box + pan
Manufacturer SPXS
Bus Type Starlink
Phase Status In Orbit
Owner/State SPXS/US

Large Constellations

Loading constellations...